Location: Munkebjergskolens Observatorium
(55.3864°N, 10.3987°E)
Time: 03:54:50
(UTC+02:00)

CAS-6 - Pass Details

Date: 05 April 2023
Orbit: 610 x 632 km, 97.9° (Epoch: 31 May)

Event Time Altitude Azimuth Distance (km) Brightness Sun altitude
Exits shadow 21:34:37 12° 82° (E) 1,871 ? -12.8°
Maximum altitude 21:36:36 16° 52° (NE) 1,663 ? -13.0°
Drops below altitude 10° 21:39:13 10° 15° (NNE) 2,020 ? -13.4°
Sets 21:42:10 0° 354° (N) 2,937 ? -13.7°
